Home   Weather   Glacier National Park   Past weeks
Flag for USA

Past Weather in Glacier National Park, Montana, USA — Yesterday and Last 2 Weeks

Now
20 °F

Ice fog.


Feels Like: 15 °F
Forecast: 42 / 24 °F
Wind: 3 mph from Northwest

Location: Kalispell - Glacier Park International

Current Time: Apr 3, 2020 at 5:40:25 am

Latest Report: Apr 3, 2020 at 4:55 am


Visibility: 1 mi

Pressure: 30.09 "Hg

Humidity: 92%

Dew Point: 18 °F

Location of Glacier National ParkLocation

Past Weather in Glacier National Park — Graph

°F

Glacier National Park Temperature Yesterday

Maximum temperature yesterday: 33 °F (at 6:55 pm)
Minimum temperature yesterday: 16 °F (at 4:32 am)
Average temperature yesterday: 22 °F

High & Low Weather Summary for the Past Weeks

 TemperatureHumidityPressure
High55 °F (Mar 21, 5:55 pm)96% (Apr 3, 4:15 am)30.33 "Hg (Apr 3, 4:15 am)
Low16 °F (Apr 2, 4:32 am)21% (Mar 22, 7:55 pm)29.63 "Hg (Mar 23, 3:55 pm)
Average35 °F64%29.97 "Hg
* Reported Mar 19 4:55 am — Apr 3 4:15 am, Glacier National Park. Weather by CustomWeather, © 2020

Note: Actual official high and low records may vary slightly from our data, if they occured in-between our weather recording intervals... More about our weather records

Glacier National Park Weather History for the Previous 24 Hours

Scroll right to see more
 ConditionsComfort  
Time TempWeatherWind HumidityBarometerVisibility
4:15 am
Fri, Apr 3
23 °FIce fog.No wind96%30.01 "Hg4 mi
4:00 am22 °FIce fog.5 mph92%30.01 "Hg4 mi
3:20 am27 °FLight snow. Ice fog.6 mph92%30.00 "Hg3 mi
3:14 am28 °FLight snow. Ice fog.3 mph89%30.02 "Hg1 mi
2:55 am28 °FSnow. Ice fog.5 mph93%30.11 "Hg1 mi
2:37 am28 °FLight snow. Ice fog.5 mph93%30.03 "Hg1 mi
2:06 am28 °FPassing clouds.5 mph89%30.03 "Hg8 mi
1:24 am29 °FLight snow. Ice fog.3 mph85%30.04 "Hg2 mi
12:55 am29 °FOvercast.No wind85%30.13 "Hg10 mi
11:55 pm
Thu, Apr 2
29 °FOvercast.No wind85%30.15 "Hg10 mi
11:20 pm28 °FOvercast.3 mph89%30.05 "Hg10 mi
11:08 pm27 °FMostly cloudy.3 mph89%30.05 "Hg10 mi
10:55 pm27 °FMostly cloudy.N/A89%30.16 "Hg10 mi
9:55 pm29 °FLight snow. Mostly cloudy.No wind82%30.17 "Hg5 mi
9:08 pm29 °FLight snow. Overcast.3 mph79%30.06 "Hg5 mi
8:55 pm30 °FLight snow. Mostly cloudy.3 mph72%30.17 "Hg3 mi
7:55 pm32 °FOvercast.3 mph61%30.16 "Hg10 mi
6:55 pm33 °FOvercast.3 mph58%30.16 "Hg10 mi
4:55 pm32 °FPartly sunny.3 mph59%30.17 "Hg10 mi
3:55 pm31 °FOvercast.3 mph61%30.18 "Hg10 mi
2:55 pm30 °FMostly cloudy.3 mph61%30.19 "Hg10 mi
1:55 pm28 °FLight snow. Overcast.5 mph64%30.21 "Hg9 mi
12:55 pm26 °FLight snow. Overcast.6 mph63%30.23 "Hg9 mi
11:55 am23 °FLight snow. Overcast.8 mph63%30.24 "Hg9 mi
11:02 am21 °FLight snow. Overcast.12 mph65%30.12 "Hg7 mi
9:55 am19 °FLight snow. Ice fog.13 mph71%30.24 "Hg1 mi
8:55 am18 °FLight snow. Overcast.10 mph71%30.24 "Hg1 mi
8:11 am17 °FLight snow. Overcast.13 mph70%30.11 "Hg1 mi
7:42 am16 °FLight snow. Ice fog.10 mph77%30.11 "Hg1 mi
7:04 am16 °FLight snow. Overcast.12 mph77%30.11 "Hg1 mi
6:30 am16 °FLight snow. Overcast.14 mph74%30.10 "Hg1 mi
5:55 am17 °FOvercast.15 mph64%30.21 "Hg10 mi
5:36 am16 °FLight snow. Overcast.14 mph71%30.10 "Hg4 mi
5:21 am16 °FLight snow. Overcast.16 mph71%30.10 "Hg3 mi
5:09 am16 °FLight snow. Overcast.17 mph71%30.09 "Hg2 mi
Weather by CustomWeather, © 2020

See weather overview

Advertising